Time,TemperatureF,DewpointF,PressureIn,WindDirection,WindDirectionDegrees,WindSpeedMPH,WindSpeedGustMPH,Humidity,HourlyPrecipIn,Conditions,Clouds,dailyrainin,SoftwareType,DateUTC
2013-09-07 00:07:00,58.5,43.3,30.12,North,-999,0.0,0.0,57,0.00,,,-99.99,FreeWX 2.04,2013-09-07 04:07:00,
2013-09-07 00:17:00,58.3,43.2,30.12,North,-999,0.0,0.0,57,0.00,,,-99.99,FreeWX 2.04,2013-09-07 04:17:00,
2013-09-07 00:27:00,58.1,43.3,30.12,North,-999,0.0,0.0,58,0.00,,,-99.99,FreeWX 2.04,2013-09-07 04:27:00,
2013-09-07 00:37:00,57.7,43.5,30.12,North,-999,0.0,0.0,59,0.00,,,-99.99,FreeWX 2.04,2013-09-07 04:37:00,
2013-09-07 00:47:00,57.6,43.3,30.12,North,-999,0.0,0.0,59,0.00,,,-99.99,FreeWX 2.04,2013-09-07 04:47:00,
2013-09-07 00:57:00,57.4,43.5,30.12,North,-999,0.0,0.0,60,0.00,,,-99.99,FreeWX 2.04,2013-09-07 04:57:00,
2013-09-07 01:07:00,57.4,43.5,30.12,North,-999,0.0,0.0,60,0.00,,,-99.99,FreeWX 2.04,2013-09-07 05:07:00,
2013-09-07 01:17:00,57.4,43.5,30.12,North,-999,0.0,0.0,60,0.00,,,-99.99,FreeWX 2.04,2013-09-07 05:17:00,
2013-09-07 01:27:00,57.0,43.3,30.12,North,-999,0.0,0.0,60,0.00,,,-99.99,FreeWX 2.04,2013-09-07 05:27:00,
2013-09-07 01:37:00,57.0,43.3,30.12,North,-999,0.0,0.0,60,0.00,,,-99.99,FreeWX 2.04,2013-09-07 05:37:00,
2013-09-07 01:47:00,56.8,43.5,30.12,North,-999,0.0,0.0,61,0.00,,,-99.99,FreeWX 2.04,2013-09-07 05:47:00,
2013-09-07 01:57:00,56.7,43.3,30.12,North,-999,0.0,0.0,61,0.00,,,-99.99,FreeWX 2.04,2013-09-07 05:57:00,
2013-09-07 02:07:00,56.5,43.2,30.12,North,-999,0.0,0.0,61,0.00,,,-99.99,FreeWX 2.04,2013-09-07 06:07:00,
2013-09-07 02:17:00,56.3,43.5,30.12,North,-999,0.0,0.0,62,0.00,,,-99.99,FreeWX 2.04,2013-09-07 06:17:00,
2013-09-07 02:27:00,56.3,43.5,30.12,North,-999,0.0,0.0,62,0.00,,,-99.99,FreeWX 2.04,2013-09-07 06:27:00,
2013-09-07 02:37:00,56.1,43.3,30.12,North,-999,0.0,0.0,62,0.00,,,-99.99,FreeWX 2.04,2013-09-07 06:37:00,
2013-09-07 02:47:00,55.9,43.5,30.12,North,-999,0.0,0.0,63,0.00,,,-99.99,FreeWX 2.04,2013-09-07 06:47:00,
2013-09-07 02:57:00,55.9,43.2,30.09,North,-999,0.0,0.0,62,0.00,,,-99.99,FreeWX 2.04,2013-09-07 06:57:00,
2013-09-07 03:07:00,55.8,43.3,30.09,North,-999,0.0,0.0,63,0.00,,,-99.99,FreeWX 2.04,2013-09-07 07:07:00,
2013-09-07 03:17:00,55.6,43.2,30.09,North,-999,0.0,0.0,63,0.00,,,-99.99,FreeWX 2.04,2013-09-07 07:17:00,
2013-09-07 03:27:00,55.4,43.3,30.09,North,-999,0.0,0.0,64,0.00,,,-99.99,FreeWX 2.04,2013-09-07 07:27:00,
2013-09-07 03:37:00,55.4,43.0,30.09,North,-999,0.0,0.0,63,0.00,,,-99.99,FreeWX 2.04,2013-09-07 07:37:00,
2013-09-07 03:47:00,55.2,42.8,30.09,North,-999,0.0,0.0,63,0.00,,,-99.99,FreeWX 2.04,2013-09-07 07:47:00,
2013-09-07 03:57:00,55.0,43.2,30.09,North,-999,0.0,0.0,64,0.00,,,-99.99,FreeWX 2.04,2013-09-07 07:57:00,
2013-09-07 04:07:00,54.9,42.4,30.09,North,-999,0.0,0.0,63,0.00,,,-99.99,FreeWX 2.04,2013-09-07 08:07:00,
2013-09-07 04:17:00,54.9,43.0,30.09,North,-999,0.0,0.0,64,0.00,,,-99.99,FreeWX 2.04,2013-09-07 08:17:00,
2013-09-07 04:27:00,54.7,42.3,30.09,North,-999,0.0,0.0,63,0.00,,,-99.99,FreeWX 2.04,2013-09-07 08:27:00,
2013-09-07 04:37:00,54.5,42.1,30.09,North,-999,0.0,0.0,63,0.00,,,-99.99,FreeWX 2.04,2013-09-07 08:37:00,
2013-09-07 04:47:00,54.5,42.6,30.09,North,-999,0.0,0.0,64,0.00,,,-99.99,FreeWX 2.04,2013-09-07 08:47:00,
2013-09-07 04:57:00,54.3,42.4,30.09,North,-999,0.0,0.0,64,0.00,,,-99.99,FreeWX 2.04,2013-09-07 08:57:00,
2013-09-07 05:07:00,54.1,42.3,30.09,North,-999,0.0,0.0,64,0.00,,,-99.99,FreeWX 2.04,2013-09-07 09:07:00,
2013-09-07 05:17:00,53.8,41.9,30.09,North,-999,0.0,0.0,64,0.00,,,-99.99,FreeWX 2.04,2013-09-07 09:17:00,
2013-09-07 05:27:00,53.4,41.9,30.09,North,-999,0.0,0.0,65,0.00,,,-99.99,FreeWX 2.04,2013-09-07 09:27:00,
2013-09-07 05:37:00,53.6,42.4,30.09,North,-999,0.0,0.0,66,0.00,,,-99.99,FreeWX 2.04,2013-09-07 09:37:00,
2013-09-07 05:47:00,53.8,42.3,30.09,North,-999,0.0,0.0,65,0.00,,,-99.99,FreeWX 2.04,2013-09-07 09:47:00,
2013-09-07 05:57:00,53.6,42.1,30.09,North,-999,0.0,0.0,65,0.00,,,-99.99,FreeWX 2.04,2013-09-07 09:57:00,
2013-09-07 06:07:00,53.4,41.9,30.09,North,-999,0.0,0.0,65,0.00,,,-99.99,FreeWX 2.04,2013-09-07 10:07:00,
2013-09-07 06:17:00,53.2,41.7,30.09,North,-999,0.0,0.0,65,0.00,,,-99.99,FreeWX 2.04,2013-09-07 10:17:00,
2013-09-07 06:27:00,53.1,41.5,30.09,North,-999,0.0,0.0,65,0.00,,,-99.99,FreeWX 2.04,2013-09-07 10:27:00,
2013-09-07 06:37:00,52.7,41.2,30.09,North,-999,0.0,0.0,65,0.00,,,-99.99,FreeWX 2.04,2013-09-07 10:37:00,
2013-09-07 06:47:00,52.9,41.9,30.09,North,-999,0.0,0.0,66,0.00,,,-99.99,FreeWX 2.04,2013-09-07 10:47:00,
2013-09-07 06:57:00,52.9,41.4,30.09,North,-999,0.0,0.0,65,0.00,,,-99.99,FreeWX 2.04,2013-09-07 10:57:00,
2013-09-07 07:07:00,52.7,41.7,30.12,North,-999,0.0,0.0,66,0.00,,,-99.99,FreeWX 2.04,2013-09-07 11:07:00,
2013-09-07 07:17:00,52.9,41.9,30.12,North,-999,0.0,0.0,66,0.00,,,-99.99,FreeWX 2.04,2013-09-07 11:17:00,
2013-09-07 07:27:00,52.7,41.7,30.12,North,-999,0.0,0.0,66,0.00,,,-99.99,FreeWX 2.04,2013-09-07 11:27:00,
2013-09-07 07:37:00,52.5,41.5,30.12,North,-999,0.0,0.0,66,0.00,,,-99.99,FreeWX 2.04,2013-09-07 11:37:00,
2013-09-07 07:47:00,52.7,42.1,30.12,North,-999,0.0,0.0,67,0.00,,,-99.99,FreeWX 2.04,2013-09-07 11:47:00,
2013-09-07 07:57:00,53.2,42.6,30.12,North,-999,0.0,0.0,67,0.00,,,-99.99,FreeWX 2.04,2013-09-07 11:57:00,
2013-09-07 08:07:00,53.8,43.2,30.12,North,-999,0.0,0.0,67,0.00,,,-99.99,FreeWX 2.04,2013-09-07 12:07:00,
2013-09-07 08:17:00,54.5,44.2,30.12,North,-999,0.0,0.0,68,0.00,,,-99.99,FreeWX 2.04,2013-09-07 12:17:00,
2013-09-07 08:27:00,55.0,44.6,30.12,North,-999,0.0,0.0,68,0.00,,,-99.99,FreeWX 2.04,2013-09-07 12:27:00,
2013-09-07 08:37:00,55.8,45.3,30.12,North,-999,0.0,0.0,68,0.00,,,-99.99,FreeWX 2.04,2013-09-07 12:37:00,
2013-09-07 08:47:00,56.3,45.9,30.12,North,-999,0.0,0.0,68,0.00,,,-99.99,FreeWX 2.04,2013-09-07 12:47:00,
2013-09-07 08:57:00,56.8,46.4,30.12,North,-999,0.0,0.0,68,0.00,,,-99.99,FreeWX 2.04,2013-09-07 12:57:00,
2013-09-07 09:07:00,57.7,47.7,30.12,North,-999,0.0,0.0,69,0.00,,,-99.99,FreeWX 2.04,2013-09-07 13:07:00,
2013-09-07 09:17:00,58.6,48.6,30.12,North,-999,0.0,0.0,69,0.00,,,-99.99,FreeWX 2.04,2013-09-07 13:17:00,
2013-09-07 09:27:00,59.7,49.5,30.12,North,-999,0.0,0.0,69,0.00,,,-99.99,FreeWX 2.04,2013-09-07 13:27:00,
2013-09-07 09:37:00,60.6,50.4,30.09,North,-999,0.0,0.0,69,0.00,,,-99.99,FreeWX 2.04,2013-09-07 13:37:00,
2013-09-07 09:47:00,62.1,51.8,30.09,North,-999,0.0,0.0,69,0.00,,,-99.99,FreeWX 2.04,2013-09-07 13:47:00,
2013-09-07 09:57:00,63.3,52.2,30.12,North,-999,0.0,0.0,67,0.00,,,-99.99,FreeWX 2.04,2013-09-07 13:57:00,
2013-09-07 10:07:00,64.9,53.2,30.12,North,-999,0.0,0.0,66,0.00,,,-99.99,FreeWX 2.04,2013-09-07 14:07:00,
2013-09-07 10:17:00,66.0,52.7,30.12,North,-999,0.0,0.0,62,0.00,,,-99.99,FreeWX 2.04,2013-09-07 14:17:00,
2013-09-07 10:27:00,67.5,49.6,30.12,North,-999,0.0,0.0,53,0.00,,,-99.99,FreeWX 2.04,2013-09-07 14:27:00,
2013-09-07 10:37:00,68.9,51.1,30.12,North,-999,0.0,0.0,53,0.00,,,-99.99,FreeWX 2.04,2013-09-07 14:37:00,
2013-09-07 10:47:00,70.3,50.2,30.12,North,-999,0.0,0.0,49,0.00,,,-99.99,FreeWX 2.04,2013-09-07 14:47:00,
2013-09-07 10:57:00,71.6,49.1,30.12,North,-999,0.0,0.0,45,0.00,,,-99.99,FreeWX 2.04,2013-09-07 14:57:00,
2013-09-07 11:07:00,73.0,41.4,30.12,North,-999,0.0,0.0,32,0.00,,,-99.99,FreeWX 2.04,2013-09-07 15:07:00,
2013-09-07 11:17:00,74.3,43.3,30.12,North,-999,0.0,0.0,33,0.00,,,-99.99,FreeWX 2.04,2013-09-07 15:17:00,
2013-09-07 11:27:00,75.7,43.0,30.09,North,-999,0.0,0.0,31,0.00,,,-99.99,FreeWX 2.04,2013-09-07 15:27:00,
2013-09-07 11:37:00,77.0,43.2,30.09,North,-999,0.0,0.0,30,0.00,,,-99.99,FreeWX 2.04,2013-09-07 15:37:00,
2013-09-07 11:47:00,78.4,44.4,30.09,North,-999,0.0,0.0,30,0.00,,,-99.99,FreeWX 2.04,2013-09-07 15:47:00,
2013-09-07 11:57:00,77.7,40.1,30.09,North,-999,0.0,0.0,26,0.00,,,-99.99,FreeWX 2.04,2013-09-07 15:57:00,
2013-09-07 12:07:00,78.4,37.6,30.09,North,-999,0.0,0.0,23,0.00,,,-99.99,FreeWX 2.04,2013-09-07 16:07:00,
2013-09-07 12:17:00,80.1,39.9,30.09,North,-999,0.0,0.0,24,0.00,,,-99.99,FreeWX 2.04,2013-09-07 16:17:00,
2013-09-07 12:27:00,81.1,36.3,30.09,North,-999,0.0,0.0,20,0.00,,,-99.99,FreeWX 2.04,2013-09-07 16:27:00,
2013-09-07 12:37:00,81.5,36.5,30.09,North,-999,0.0,0.0,20,0.00,,,-99.99,FreeWX 2.04,2013-09-07 16:37:00,
2013-09-07 12:47:00,83.8,35.8,30.09,North,-999,0.0,0.0,18,0.00,,,-99.99,FreeWX 2.04,2013-09-07 16:47:00,
2013-09-07 12:58:00,84.4,36.1,30.09,North,-999,0.0,0.0,18,0.00,,,-99.99,FreeWX 2.04,2013-09-07 16:58:00,
2013-09-07 13:08:00,84.6,33.4,30.09,North,-999,0.0,0.0,16,0.00,,,-99.99,FreeWX 2.04,2013-09-07 17:08:00,
2013-09-07 13:18:00,84.4,33.3,30.09,North,-999,0.0,0.0,16,0.00,,,-99.99,FreeWX 2.04,2013-09-07 17:18:00,
2013-09-07 13:28:00,85.1,33.8,30.06,North,-999,0.0,0.0,16,0.00,,,-99.99,FreeWX 2.04,2013-09-07 17:28:00,
2013-09-07 13:38:00,85.8,34.3,30.06,North,-999,0.0,0.0,16,0.00,,,-99.99,FreeWX 2.04,2013-09-07 17:38:00,
2013-09-07 13:48:00,87.1,33.8,30.06,North,-999,0.0,0.0,15,0.00,,,-99.99,FreeWX 2.04,2013-09-07 17:48:00,
2013-09-07 13:58:00,87.3,34.0,30.06,North,-999,0.0,0.0,15,0.00,,,-99.99,FreeWX 2.04,2013-09-07 17:58:00,
2013-09-07 14:08:00,87.4,30.6,30.06,North,-999,0.0,0.0,13,0.00,,,-99.99,FreeWX 2.04,2013-09-07 18:08:00,
2013-09-07 14:18:00,88.9,29.7,30.06,North,-999,0.0,0.0,12,0.00,,,-99.99,FreeWX 2.04,2013-09-07 18:18:00,
2013-09-07 14:28:00,89.1,35.4,30.06,North,-999,0.0,0.0,15,0.00,,,-99.99,FreeWX 2.04,2013-09-07 18:28:00,
2013-09-07 14:38:00,88.9,29.7,30.03,North,-999,0.0,0.0,12,0.00,,,-99.99,FreeWX 2.04,2013-09-07 18:38:00,
2013-09-07 14:48:00,89.4,30.0,30.03,North,-999,0.0,0.0,12,0.00,,,-99.99,FreeWX 2.04,2013-09-07 18:48:00,
2013-09-07 14:58:00,89.4,30.0,30.03,North,-999,0.0,0.0,12,0.00,,,-99.99,FreeWX 2.04,2013-09-07 18:58:00,
2013-09-07 15:08:00,89.2,30.0,30.03,North,-999,0.0,0.0,12,0.00,,,-99.99,FreeWX 2.04,2013-09-07 19:08:00,
2013-09-07 15:18:00,88.7,31.5,30.03,North,-999,0.0,0.0,13,0.00,,,-99.99,FreeWX 2.04,2013-09-07 19:18:00,
2013-09-07 15:28:00,89.1,29.8,30.03,North,-999,0.0,0.0,12,0.00,,,-99.99,FreeWX 2.04,2013-09-07 19:28:00,
2013-09-07 15:38:00,89.1,35.4,30.03,North,-999,0.0,0.0,15,0.00,,,-99.99,FreeWX 2.04,2013-09-07 19:38:00,
2013-09-07 15:48:00,87.8,34.3,30.03,North,-999,0.0,0.0,15,0.00,,,-99.99,FreeWX 2.04,2013-09-07 19:48:00,
2013-09-07 15:58:00,87.8,34.3,30.03,North,-999,0.0,0.0,15,0.00,,,-99.99,FreeWX 2.04,2013-09-07 19:58:00,
2013-09-07 16:08:00,87.6,30.7,30.00,North,-999,0.0,0.0,13,0.00,,,-99.99,FreeWX 2.04,2013-09-07 20:08:00,
2013-09-07 16:18:00,86.5,35.1,30.00,North,-999,0.0,0.0,16,0.00,,,-99.99,FreeWX 2.04,2013-09-07 20:18:00,
2013-09-07 16:28:00,84.9,33.6,30.00,North,-999,0.0,0.0,16,0.00,,,-99.99,FreeWX 2.04,2013-09-07 20:28:00,
2013-09-07 16:38:00,83.3,35.4,30.00,North,-999,0.0,0.0,18,0.00,,,-99.99,FreeWX 2.04,2013-09-07 20:38:00,
2013-09-07 16:48:00,82.4,36.0,30.00,North,-999,0.0,0.0,19,0.00,,,-99.99,FreeWX 2.04,2013-09-07 20:48:00,
2013-09-07 16:58:00,81.7,35.4,30.00,North,-999,0.0,0.0,19,0.00,,,-99.99,FreeWX 2.04,2013-09-07 20:58:00,
2013-09-07 17:08:00,80.8,36.0,30.00,North,-999,0.0,0.0,20,0.00,,,-99.99,FreeWX 2.04,2013-09-07 21:08:00,
2013-09-07 17:18:00,80.2,35.4,30.00,North,-999,0.0,0.0,20,0.00,,,-99.99,FreeWX 2.04,2013-09-07 21:18:00,
2013-09-07 17:28:00,79.9,35.2,30.00,North,-999,0.0,0.0,20,0.00,,,-99.99,FreeWX 2.04,2013-09-07 21:28:00,
2013-09-07 17:38:00,79.3,37.2,30.00,North,-999,0.0,0.0,22,0.00,,,-99.99,FreeWX 2.04,2013-09-07 21:38:00,
2013-09-07 17:48:00,78.4,39.7,30.00,North,-999,0.0,0.0,25,0.00,,,-99.99,FreeWX 2.04,2013-09-07 21:48:00,
2013-09-07 17:58:00,78.1,41.4,30.00,North,-999,0.0,0.0,27,0.00,,,-99.99,FreeWX 2.04,2013-09-07 21:58:00,
2013-09-07 18:08:00,77.7,43.9,30.00,North,-999,0.0,0.0,30,0.00,,,-99.99,FreeWX 2.04,2013-09-07 22:08:00,
2013-09-07 18:18:00,78.1,44.1,30.00,North,-999,0.0,0.0,30,0.00,,,-99.99,FreeWX 2.04,2013-09-07 22:18:00,
2013-09-07 18:28:00,77.5,44.4,30.00,North,-999,0.0,0.0,31,0.00,,,-99.99,FreeWX 2.04,2013-09-07 22:28:00,
2013-09-07 18:38:00,76.8,44.8,30.00,North,-999,0.0,0.0,32,0.00,,,-99.99,FreeWX 2.04,2013-09-07 22:38:00,
2013-09-07 18:48:00,76.5,46.0,30.00,North,-999,0.0,0.0,34,0.00,,,-99.99,FreeWX 2.04,2013-09-07 22:48:00,
2013-09-07 18:58:00,76.3,48.7,30.00,North,-999,0.0,0.0,38,0.00,,,-99.99,FreeWX 2.04,2013-09-07 22:58:00,
2013-09-07 19:08:00,75.9,51.1,30.00,North,-999,0.0,0.0,42,0.00,,,-99.99,FreeWX 2.04,2013-09-07 23:08:00,
2013-09-07 19:18:00,75.4,52.0,30.00,North,-999,0.0,0.0,44,0.00,,,-99.99,FreeWX 2.04,2013-09-07 23:18:00,
2013-09-07 19:28:00,74.8,52.0,30.00,North,-999,0.0,0.0,45,0.00,,,-99.99,FreeWX 2.04,2013-09-07 23:28:00,
2013-09-07 19:38:00,74.3,52.2,30.00,North,-999,0.0,0.0,46,0.00,,,-99.99,FreeWX 2.04,2013-09-07 23:38:00,
2013-09-07 19:48:00,73.6,51.4,30.00,North,-999,0.0,0.0,46,0.00,,,-99.99,FreeWX 2.04,2013-09-07 23:48:00,
2013-09-07 19:58:00,73.0,52.2,30.00,North,-999,0.0,0.0,48,0.00,,,-99.99,FreeWX 2.04,2013-09-07 23:58:00,
2013-09-07 20:08:00,72.5,52.7,30.00,North,-999,0.0,0.0,50,0.00,,,-99.99,FreeWX 2.04,2013-09-08 00:08:00,
2013-09-07 20:18:00,72.1,52.0,30.00,North,-999,0.0,0.0,49,0.00,,,-99.99,FreeWX 2.04,2013-09-08 00:18:00,
2013-09-07 20:28:00,71.6,52.0,30.00,North,-999,0.0,0.0,50,0.00,,,-99.99,FreeWX 2.04,2013-09-08 00:28:00,
2013-09-07 20:38:00,71.2,52.7,30.00,North,-999,0.0,0.0,52,0.00,,,-99.99,FreeWX 2.04,2013-09-08 00:38:00,
2013-09-07 20:48:00,70.9,52.3,30.00,North,-999,0.0,0.0,52,0.00,,,-99.99,FreeWX 2.04,2013-09-08 00:48:00,
2013-09-07 20:58:00,70.5,51.4,30.00,North,-999,0.0,0.0,51,0.00,,,-99.99,FreeWX 2.04,2013-09-08 00:58:00,
2013-09-07 21:08:00,70.2,52.7,30.00,North,-999,0.0,0.0,54,0.00,,,-99.99,FreeWX 2.04,2013-09-08 01:08:00,
2013-09-07 21:18:00,69.8,51.8,30.00,North,-999,0.0,0.0,53,0.00,,,-99.99,FreeWX 2.04,2013-09-08 01:18:00,
2013-09-07 21:28:00,69.4,52.5,30.00,North,-999,0.0,0.0,55,0.00,,,-99.99,FreeWX 2.04,2013-09-08 01:28:00,
2013-09-07 21:38:00,69.3,52.0,30.00,North,-999,0.0,0.0,54,0.00,,,-99.99,FreeWX 2.04,2013-09-08 01:38:00,
2013-09-07 21:48:00,68.9,51.6,30.00,North,-999,0.0,0.0,54,0.00,,,-99.99,FreeWX 2.04,2013-09-08 01:48:00,
2013-09-07 21:58:00,68.7,51.8,30.00,North,-999,0.0,0.0,55,0.00,,,-99.99,FreeWX 2.04,2013-09-08 01:58:00,
2013-09-07 22:08:00,68.5,51.8,30.00,North,-999,0.0,0.0,55,0.00,,,-99.99,FreeWX 2.04,2013-09-08 02:08:00,
2013-09-07 22:18:00,68.0,52.2,30.00,North,-999,0.0,0.0,57,0.00,,,-99.99,FreeWX 2.04,2013-09-08 02:18:00,
2013-09-07 22:28:00,68.2,52.3,30.00,North,-999,0.0,0.0,57,0.00,,,-99.99,FreeWX 2.04,2013-09-08 02:28:00,
2013-09-07 22:38:00,67.8,52.5,30.00,North,-999,0.0,0.0,58,0.00,,,-99.99,FreeWX 2.04,2013-09-08 02:38:00,
2013-09-07 22:48:00,68.0,53.1,30.00,North,-999,0.0,0.0,59,0.00,,,-99.99,FreeWX 2.04,2013-09-08 02:48:00,
2013-09-07 22:58:00,67.8,52.9,30.00,North,-999,0.0,0.0,59,0.00,,,-99.99,FreeWX 2.04,2013-09-08 02:58:00,
2013-09-07 23:08:00,67.5,52.7,30.00,North,-999,0.0,0.0,59,0.00,,,-99.99,FreeWX 2.04,2013-09-08 03:08:00,
2013-09-07 23:18:00,67.5,53.1,30.00,North,-999,0.0,0.0,60,0.00,,,-99.99,FreeWX 2.04,2013-09-08 03:18:00,
2013-09-07 23:28:00,67.1,52.7,30.00,North,-999,0.0,0.0,60,0.00,,,-99.99,FreeWX 2.04,2013-09-08 03:28:00,
2013-09-07 23:38:00,66.9,53.1,30.00,North,-999,0.0,0.0,61,0.00,,,-99.99,FreeWX 2.04,2013-09-08 03:38:00,
2013-09-07 23:48:00,66.9,53.1,30.00,North,-999,0.0,0.0,61,0.00,,,-99.99,FreeWX 2.04,2013-09-08 03:48:00,
2013-09-07 23:58:00,66.9,53.1,30.00,North,-999,0.0,0.0,61,0.00,,,-99.99,FreeWX 2.04,2013-09-08 03:58:00,